Weather History for KAZO - November, 2012

Change the Weather History Date:

Sunday, November 4, 2012

  Actual Average Record
Temperature  
Mean Temperature 33 °F 45 °F  
Max Temperature 40 °F 53 °F 77 °F (1987)
Min Temperature 26 °F 37 °F 19 °F (1951)
Degree Days  
Heating Degree Days 32 20  
Month to date heating degree days 111 78  
Since 1 July heating degree days 729 670  
Cooling Degree Days 0 0  
Month to date cooling degree days 0 0  
Year to date cooling degree days 1051 675  
Moisture  
Dew Point 27 °F    
Average Humidity 74    
Maximum Humidity 89    
Minimum Humidity 59    
Precipitation  
Precipitation 0.00 in 0.11 in 2.61 in (1990)
Month to date precipitation 0.00 0.43  
Year to date precipitation 25.32 31.17  
Sea Level Pressure  
Sea Level Pressure 30.22 in    
Wind  
Wind Speed 2 mph (NNE)    
Max Wind Speed 9 mph    
Max Gust Speed 12 mph    
Visibility 10 miles    
Events      
T = Trace of Precipitation, MM = Missing Value Source: NWS Daily Summary

Daily Weather History Graph

Daily Weather History Graph

Search for Another Location

Airport or City:

Trip Planner

Search our weather history database for the weather conditions in past years. The results will help you decide how hot, cold, wet, or windy it might be!

Date:

Astronomy

Nov. 04, 2012 Rise Set
Actual Time 7:19 AM EST 5:31 PM EST
Civil Twilight 6:50 AM EST 6:00 PM EST
Nautical Twilight 6:16 AM EST 6:34 PM EST
Astronomical Twilight 5:44 AM EST 7:06 PM EST
Moon 10:07 PM EST (11/4) 12:04 PM EST (11/4)
Length of Visible Light 11h 10m
Length of Day
10h 11m
Waning Gibbous, 72% of the Moon is Illuminated
Nov 4
Waning Gibbous
Nov 6
Last Quarter
Nov 13
New
Nov 20
First Quarter
Nov 28
Full

Hourly Weather History & Observations

Time (EST) Temp. Windchill Dew Point Humidity Pressure Visibility Wind Dir Wind Speed Gust Speed Precip Events Conditions
12:53 AM 32.0 °F - 28.0 °F 85% 30.22 in 10.0 mi Calm Calm - N/A   Overcast
1:03 AM 33.8 °F - 28.4 °F 81% 30.19 in 10.0 mi Calm Calm - N/A   Overcast
1:53 AM 34.0 °F - 28.9 °F 82% 30.22 in 10.0 mi Calm Calm - N/A   Overcast
1:53 AM 33.8 °F - 28.4 °F 81% 30.18 in 10.0 mi Calm Calm - N/A   Overcast
2:53 AM 35.1 °F - 30.0 °F 82% 30.21 in 10.0 mi Calm Calm - N/A   Overcast
3:53 AM 34.0 °F - 30.9 °F 89% 30.21 in 10.0 mi Calm Calm - N/A   Overcast
4:53 AM 35.1 °F 32.2 °F 30.9 °F 85% 30.22 in 10.0 mi North 3.5 mph - N/A   Overcast
5:53 AM 35.1 °F 32.2 °F 30.9 °F 85% 30.23 in 10.0 mi North 3.5 mph - N/A   Overcast
6:53 AM 34.0 °F - 30.9 °F 89% 30.23 in 10.0 mi Calm Calm - N/A   Overcast
7:28 AM 35.6 °F 32.8 °F 30.2 °F 81% 30.21 in 10.0 mi North 3.5 mph - N/A   Overcast
7:53 AM 35.1 °F 32.2 °F 30.0 °F 82% 30.24 in 10.0 mi North 3.5 mph - N/A   Overcast
8:53 AM 36.0 °F 33.3 °F 27.0 °F 70% 30.24 in 10.0 mi NE 3.5 mph - N/A   Overcast
9:53 AM 36.0 °F 33.3 °F 26.1 °F 67% 30.24 in 10.0 mi ENE 3.5 mph - N/A   Overcast
10:53 AM 37.0 °F - 27.0 °F 67% 30.24 in 10.0 mi Calm Calm - N/A   Overcast
11:20 AM 37.4 °F 34.9 °F 26.6 °F 65% 30.20 in 10.0 mi Variable 3.5 mph - N/A   Overcast
11:53 AM 37.9 °F 33.5 °F 27.0 °F 65% 30.23 in 10.0 mi North 5.8 mph - N/A   Overcast
12:53 PM 39.0 °F 34.8 °F 27.0 °F 62% 30.22 in 10.0 mi NW 5.8 mph - N/A   Overcast
1:53 PM 39.0 °F 35.7 °F 26.1 °F 60% 30.21 in 10.0 mi North 4.6 mph - N/A   Mostly Cloudy
2:53 PM 39.9 °F 35.8 °F 27.0 °F 60% 30.20 in 10.0 mi North 5.8 mph - N/A   Scattered Clouds
3:53 PM 39.9 °F 37.8 °F 26.1 °F 58% 30.20 in 10.0 mi ENE 3.5 mph - N/A   Clear
4:53 PM 39.9 °F 37.8 °F 26.1 °F 58% 30.19 in 10.0 mi ENE 3.5 mph - N/A   Clear
5:53 PM 36.0 °F 33.3 °F 26.1 °F 67% 30.20 in 10.0 mi NE 3.5 mph - N/A   Clear
6:53 PM 34.0 °F - 25.0 °F 70% 30.22 in 10.0 mi Calm Calm - N/A   Clear
7:53 PM 30.9 °F 27.5 °F 24.1 °F 76% 30.22 in 9.0 mi SE 3.5 mph - N/A   Clear
8:53 PM 28.9 °F - 24.1 °F 82% 30.22 in 10.0 mi Calm Calm - N/A   Clear
9:53 PM 28.9 °F - 24.1 °F 82% 30.22 in 9.0 mi Calm Calm - N/A   Clear
10:53 PM 27.0 °F - 23.0 °F 85% 30.22 in 10.0 mi Calm Calm - N/A   Clear